Weather History for KRIL - May, 2014

Change the Weather History Date:

Monday, May 5, 2014

  Actual Average Record
Temperature  
Mean Temperature 59 °F 53 °F  
Max Temperature 80 °F 69 °F - ()
Min Temperature 38 °F 38 °F - ()
Degree Days  
Heating Degree Days 6 12  
Month to date heating degree days 51 62  
Since 1 July heating degree days 6524 6359  
Cooling Degree Days 0 0  
Month to date cooling degree days 0 0  
Year to date cooling degree days 0 0  
Growing Degree Days 8 (Base 50)    
Moisture  
Dew Point 15 °F    
Average Humidity 27    
Maximum Humidity 48    
Minimum Humidity 5    
Precipitation  
Precipitation 0.00 in 0.05 in - ()
Month to date precipitation 0.00 0.26  
Year to date precipitation 2.83 4.17  
Sea Level Pressure  
Sea Level Pressure 29.75 in    
Wind  
Wind Speed 8 mph (SW)    
Max Wind Speed 29 mph    
Max Gust Speed 40 mph    
Visibility 10 miles    
Events      
T = Trace of Precipitation, MM = Missing Value Source: NWS Daily Summary

Daily Weather History Graph

Daily Weather History Graph

Search for Another Location

Airport or City:

Trip Planner

Search our weather history database for the weather conditions in past years. The results will help you decide how hot, cold, wet, or windy it might be!

Date:

Astronomy

May. 05, 2014 Rise Set
Actual Time 6:07 AM MDT 8:08 PM MDT
Civil Twilight 5:37 AM MDT 8:38 PM MDT
Nautical Twilight 5:01 AM MDT 9:14 PM MDT
Astronomical Twilight 4:22 AM MDT 9:53 PM MDT
Moon 11:29 AM MDT (5/5) 12:54 AM MDT (5/5)
Length of Visible Light 15h 00m
Length of Day
14h 01m
Waxing Crescent, 37% of the Moon is Illuminated
May 5
Waxing Crescent
May 6
First Quarter
May 14
Full
May 21
Last Quarter
May 28
New

Hourly Weather History & Observations

Time (MDT) Temp. Windchill Dew Point Humidity Pressure Visibility Wind Dir Wind Speed Gust Speed Precip Events Conditions
12:53 AM 51.1 °F - 19.9 °F 29% 29.80 in 10.0 mi Variable 3.5 mph - N/A   Clear
1:53 AM 43.0 °F 41.3 °F 21.0 °F 42% 29.82 in 10.0 mi SSE 3.5 mph - N/A   Clear
2:53 AM 41.0 °F 38.0 °F 21.0 °F 45% 29.82 in 10.0 mi ESE 4.6 mph - N/A   Clear
3:53 AM 42.1 °F - 21.0 °F 43% 29.83 in 10.0 mi Calm Calm - N/A   Clear
4:53 AM 43.0 °F - 21.0 °F 42% 29.84 in 10.0 mi Calm Calm - N/A   Clear
5:53 AM 39.9 °F 36.7 °F 21.9 °F 49% 29.87 in 10.0 mi WSW 4.6 mph - N/A   Clear
6:53 AM 44.1 °F - 24.1 °F 45% 29.88 in 10.0 mi Calm Calm - N/A   Clear
7:53 AM 48.0 °F - 23.0 °F 37% 29.87 in 10.0 mi Calm Calm - N/A   Clear
8:53 AM 54.0 °F - 24.1 °F 31% 29.86 in 10.0 mi Calm Calm - N/A   Clear
9:53 AM 62.1 °F - 19.9 °F 20% 29.85 in 10.0 mi West 4.6 mph - N/A   Clear
10:53 AM 66.9 °F - 12.9 °F 12% 29.81 in 10.0 mi West 15.0 mph - N/A   Clear
12:53 PM 73.9 °F - 8.1 °F 8% 29.74 in 10.0 mi West 11.5 mph 27.6 mph N/A   Clear
1:53 PM 73.9 °F - 9.0 °F 8% 29.73 in 10.0 mi West 20.7 mph - N/A   Clear
2:53 PM 75.9 °F - 10.0 °F 8% 29.70 in 10.0 mi West 18.4 mph 25.3 mph N/A   Clear
3:53 PM 77.0 °F - 1.9 °F 5% 29.66 in 10.0 mi SSW 18.4 mph 29.9 mph N/A   Clear
4:53 PM 75.9 °F - 10.0 °F 8% 29.65 in 10.0 mi WSW 15.0 mph - N/A   Clear
5:53 PM 75.0 °F - 6.1 °F 7% 29.65 in 10.0 mi SSW 13.8 mph 25.3 mph N/A   Clear
6:53 PM 73.0 °F - 8.1 °F 8% 29.63 in 10.0 mi West 15.0 mph 24.2 mph N/A   Clear
7:53 PM 69.1 °F - 7.0 °F 9% 29.65 in 10.0 mi WSW 16.1 mph - N/A   Clear
8:53 PM 63.0 °F - 10.0 °F 13% 29.65 in 10.0 mi SW 6.9 mph - N/A   Clear
10:53 PM 50.0 °F - 18.0 °F 28% 29.66 in 10.0 mi ESE 3.5 mph - N/A   Clear
11:53 PM 48.9 °F - 18.0 °F 29% 29.64 in 10.0 mi Variable 4.6 mph - N/A   Clear